Regional Weather Roundup
Issued by NWS Cleveland, OH

Home | Current Version | Previous Version | Graphics & Text | Print | Product List | Glossary On
Versions: 1 2 3 4 5 6 7 8 9 10 11 12 13 14 15 16 17 18 19 20 21 22 23 24 25 26 27 28 29 30 31 32 33 34 35 36 37 38 39 40 41 42 43 44 45 46 47 48 49 50
000
ASUS41 KCLE 010900
RWRCLE
OHIO REGIONAL WEATHER ROUNDUP
NATIONAL WEATHER SERVICE WILMINGTON, OH
500 AM EDT SAT AUG 01 2015

NOTE: "FAIR" INDICATES FEW OR NO CLOUDS BELOW 12,000 FEET WITH NO
SIGNIFICANT WEATHER AND/OR OBSTRUCTIONS TO VISIBILITY.

OHZ001>008-015>018-024>027-034-035-043-044-011000-
   NORTHWEST OHIO

CITY           SKY/WX    TMP DP  RH WIND       PRES   REMARKS
DEFIANCE       CLEAR     61  54  77 SW3       29.94S
FINDLAY        CLEAR     63  54  72 SW6       29.93S
TOLEDO EXPRESS CLEAR     61  54  77 W8        29.92S
TOLEDO EXEC    CLEAR     64  54  69 W7        29.92S
LIMA           CLEAR     59  55  87 SW3       29.96S
$$

OHZ009>014-019>023-028>033-038-089-011000-
   NORTHEAST OHIO

CITY           SKY/WX    TMP DP  RH WIND       PRES   REMARKS
CLE-HOPKINS    PTCLDY    64  56  75 SW6       29.92S
CLE-LAKEFRONT  CLEAR     74  58  57 W9        29.88R
CUY CO. ARPT   NOT AVBL
LORAIN-ELYRIA  CLEAR     62  54  74 W7        29.91S
ASHTABULA      PTCLDY    62  58  86 CALM      29.89R
AKRON-CANTON   PTCLDY    64  57  78 W7        29.92R
WOOSTER        NOT AVBL
MANSFIELD      CLEAR     63  55  75 W7        29.94S
YOUNGSTOWN     PTCLDY    64  58  80 W5        29.89S
$$

OHZ042-051>053-060>062-070>072-077>081-011000-
  SOUTHWEST OHIO

CITY           SKY/WX    TMP DP  RH WIND       PRES   REMARKS
CINC-COVINGTON CLEAR     64  60  87 W5        29.99S
CINC-LUNKEN    CLEAR     69  60  73 CALM      29.98S
HAMILTON       CLEAR     61  59  93 CALM      29.99S
DAYTON         NOT AVBL
WRIGHT-PAT AFB NOT AVBL
DAYTON GENERAL CLEAR     63  57  81 CALM      29.97F
WILMINGTON     CLEAR     65  58  78 NW6       29.97F
$$

OHZ036-037-039>041-045>050-054>059-063>069-073>076-082>088-011000-
  CENTRAL AND SOUTHEAST OHIO

CITY           SKY/WX    TMP DP  RH WIND       PRES   REMARKS
COLUMBUS       CLEAR     67  61  81 CALM      29.94S
OSU AIRPORT    CLEAR     64  58  80 W6        29.95S
BOLTON FIELD   NOT AVBL
RICKENBACK AFB NOT AVBL
NEWARK         CLEAR     64  60  87 CALM      29.94R
MARION         CLEAR     64  55  72 W6        29.95S
LANCASTER      CLEAR     60  58  92 CALM      29.95S
ZANESVILLE     PTCLDY    65  59  81 W5        29.93S
NEW PHILLY     CLEAR     61  59  93 CALM      29.93S
$$


USA.gov is the U.S. government's official web portal to all federal, state and local government web resources and services.